Washington, VA

4:57 PM EDT on June 22, 2017 (GMT -0400)
Ronald Reagan Washington National

Weather History for KDCA - April, 2008

Change the Weather History Date:

Sunday, April 27, 2008

  Actual Average Record
Temperature  
Mean Temperature 56 °F 60 °F  
Max Temperature 59 °F 70 °F 95 °F (1915)
Min Temperature 53 °F 51 °F 38 °F (1933)
Degree Days  
Heating Degree Days 9 6  
Month to date heating degree days 178 253  
Since 1 July heating degree days 3370 3929  
Cooling Degree Days 0 1  
Month to date cooling degree days 29 18  
Year to date cooling degree days 29 20  
Growing Degree Days 6 (Base 50)    
Moisture  
Dew Point 53 °F    
Average Humidity 87    
Maximum Humidity 93    
Minimum Humidity 80    
Precipitation  
Precipitation 0.06 in 0.10 in 1.64 in (1954)
Month to date precipitation 3.96 2.74  
Year to date precipitation 12.30 11.65  
Snow  
Snow 0.00 in 0.00 in 0.00 in (2001)
Month to date snowfall 0.0 0.0  
Since 1 July snowfall 4.9 15.4  
Snow Depth 0.00 in    
Sea Level Pressure  
Sea Level Pressure 30.12 in    
Wind  
Wind Speed 10 mph (NE)    
Max Wind Speed 17 mph    
Max Gust Speed 20 mph    
Visibility 5 miles    
Events Rain    
T = Trace of Precipitation, MM = Missing Value Source: NWS Daily Summary

Daily Weather History Graph

Daily Weather History Graph

Search for Another Location

Airport or City:

Trip Planner

Search our weather history database for the weather conditions in past years. The results will help you decide how hot, cold, wet, or windy it might be!

Date:

Astronomy

Apr. 27, 2008 Rise Set
Actual Time 6:14 AM EDT 7:57 PM EDT
Civil Twilight 5:46 AM EDT 8:25 PM EDT
Nautical Twilight 5:12 AM EDT 9:00 PM EDT
Astronomical Twilight 4:35 AM EDT 9:37 PM EDT
Moon 1:48 AM EDT (4/27) 11:20 AM EDT (4/27)
Length of Visible Light 14h 39m
Length of Day
13h 42m
Waning Gibbous, 59% of the Moon is Illuminated
Apr 27
Waning Gibbous
Apr 28
Last Quarter
May 5
New
May 11
First Quarter
May 19
Full

Hourly Weather History & Observations

Time (EDT) Temp. Dew Point Humidity Pressure Visibility Wind Dir Wind Speed Gust Speed Precip Events Conditions
12:07 AM 60.8 °F 57.2 °F 88% 30.09 in 9.0 mi NE 13.8 mph - 0.01 in Rain Light Rain
12:15 AM 60.8 °F 57.2 °F 88% 30.09 in 9.0 mi NE 16.1 mph - 0.02 in Rain Light Rain
12:52 AM 59.0 °F 55.9 °F 90% 30.11 in 10.0 mi ENE 13.8 mph 20.7 mph 0.02 in Rain Light Rain
1:52 AM 57.9 °F 55.0 °F 90% 30.11 in 4.0 mi NE 13.8 mph - 0.00 in Rain Light Rain
2:11 AM 57.2 °F 55.4 °F 94% 30.11 in 10.0 mi NE 16.1 mph 19.6 mph 0.01 in Rain Light Rain
2:52 AM 57.0 °F 54.0 °F 89% 30.11 in 10.0 mi NNE 10.4 mph - 0.01 in Rain Light Rain
3:52 AM 57.0 °F 53.1 °F 87% 30.12 in 10.0 mi NE 12.7 mph - 0.02 in Rain Light Rain
4:28 AM 57.2 °F 53.6 °F 88% 30.12 in 10.0 mi NE 12.7 mph - 0.00 in   Overcast
4:52 AM 57.0 °F 53.1 °F 87% 30.12 in 10.0 mi NE 10.4 mph - 0.00 in   Overcast
5:52 AM 57.0 °F 54.0 °F 89% 30.13 in 8.0 mi North 11.5 mph - N/A   Overcast
6:52 AM 55.9 °F 52.0 °F 87% 30.16 in 8.0 mi NE 10.4 mph - N/A   Overcast
7:52 AM 55.0 °F 51.1 °F 86% 30.18 in 6.0 mi NNE 12.7 mph - N/A   Overcast
8:52 AM 54.0 °F 51.1 °F 90% 30.18 in 4.0 mi NE 12.7 mph - N/A   Overcast
9:52 AM 55.0 °F 52.0 °F 89% 30.19 in 4.0 mi NE 11.5 mph - N/A   Overcast
10:52 AM 55.9 °F 51.1 °F 84% 30.20 in 7.0 mi NE 10.4 mph - N/A   Overcast
11:50 AM 55.4 °F 51.8 °F 88% 30.18 in 5.0 mi NNE 12.7 mph - N/A   Haze
11:52 AM 55.9 °F 51.1 °F 84% 30.18 in 5.0 mi NE 11.5 mph - N/A   Haze
12:52 PM 55.9 °F 51.1 °F 84% 30.18 in 4.0 mi NNE 11.5 mph - N/A   Haze
1:52 PM 57.0 °F 52.0 °F 83% 30.16 in 8.0 mi ENE 12.7 mph - N/A   Overcast
2:52 PM 55.9 °F 52.0 °F 87% 30.16 in 8.0 mi ENE 9.2 mph - N/A   Overcast
3:00 PM 55.4 °F 51.8 °F 88% 30.15 in 7.0 mi NE 9.2 mph - N/A   Overcast
3:52 PM 55.9 °F 51.1 °F 84% 30.14 in 7.0 mi ENE 9.2 mph - N/A   Overcast
4:26 PM 55.4 °F 51.8 °F 88% 30.12 in 2.5 mi NE 8.1 mph - 0.00 in   Light Drizzle
4:32 PM 55.4 °F 51.8 °F 88% 30.12 in 3.0 mi ENE 8.1 mph - 0.00 in   Light Drizzle
4:52 PM 55.9 °F 52.0 °F 87% 30.13 in 4.0 mi NE 6.9 mph - 0.00 in   Light Drizzle
5:06 PM 55.4 °F 51.8 °F 88% 30.12 in 2.5 mi NE 9.2 mph - 0.00 in   Light Drizzle
5:17 PM 55.4 °F 51.8 °F 88% 30.12 in 1.8 mi ENE 11.5 mph - 0.00 in Rain Light Rain
5:32 PM 55.4 °F 51.8 °F 88% 30.12 in 1.8 mi NE 8.1 mph - 0.00 in Rain Light Rain
5:34 PM 55.4 °F 51.8 °F 88% 30.11 in 2.0 mi NE 8.1 mph - 0.00 in Rain Light Rain
5:38 PM 55.4 °F 51.8 °F 88% 30.12 in 2.5 mi NE 5.8 mph - 0.01 in Rain Light Rain
5:41 PM 55.4 °F 51.8 °F 88% 30.12 in 2.5 mi NE 5.8 mph - 0.01 in Rain Light Rain
5:49 PM 55.4 °F 53.6 °F 94% 30.12 in 2.0 mi NE 4.6 mph - 0.01 in Rain Light Rain
5:52 PM 55.0 °F 53.1 °F 93% 30.12 in 2.0 mi ENE 8.1 mph - 0.01 in Rain Light Rain
5:56 PM 55.4 °F 51.8 °F 88% 30.12 in 3.0 mi NE 8.1 mph - 0.00 in Rain Light Rain
6:02 PM 55.4 °F 51.8 °F 88% 30.12 in 3.0 mi NE 6.9 mph - 0.00 in   Light Drizzle
6:20 PM 55.4 °F 51.8 °F 88% 30.12 in 2.5 mi NE 6.9 mph - 0.00 in   Light Drizzle
6:29 PM 55.4 °F 53.6 °F 94% 30.11 in 3.0 mi NNE 4.6 mph - 0.00 in   Light Drizzle
6:46 PM 55.4 °F 51.8 °F 88% 30.11 in 4.0 mi NE 5.8 mph - 0.00 in Rain Light Rain
6:52 PM 55.0 °F 53.1 °F 93% 30.11 in 3.0 mi NNE 4.6 mph - 0.00 in   Light Drizzle
7:13 PM 55.4 °F 53.6 °F 94% 30.11 in 2.5 mi NE 4.6 mph - 0.00 in Rain Light Rain
7:20 PM 55.4 °F 53.6 °F 94% 30.10 in 1.8 mi NE 6.9 mph - 0.01 in Rain Light Rain
7:24 PM 55.4 °F 53.6 °F 94% 30.10 in 2.0 mi NE 9.2 mph - 0.01 in Rain Light Rain
7:29 PM 55.4 °F 51.8 °F 88% 30.10 in 3.0 mi ENE 9.2 mph - 0.01 in Rain Light Rain
7:38 PM 55.4 °F 53.6 °F 94% 30.10 in 3.0 mi ENE 8.1 mph - 0.01 in   Light Drizzle
7:41 PM 55.4 °F 53.6 °F 94% 30.10 in 3.0 mi NE 8.1 mph - 0.01 in   Light Drizzle
7:43 PM 55.4 °F 53.6 °F 94% 30.11 in 3.0 mi ENE 8.1 mph - 0.01 in   Light Drizzle
7:52 PM 55.0 °F 53.1 °F 93% 30.11 in 2.5 mi NE 9.2 mph - 0.01 in Rain Light Rain
7:58 PM 55.4 °F 53.6 °F 94% 30.10 in 2.5 mi NE 8.1 mph - 0.01 in Rain Light Rain
8:00 PM 55.4 °F 53.6 °F 94% 30.10 in 3.0 mi ENE 9.2 mph - 0.01 in Rain Light Rain
8:34 PM 55.4 °F 53.6 °F 94% 30.11 in 9.0 mi ENE 8.1 mph - 0.01 in   Overcast
8:47 PM 55.4 °F 51.8 °F 88% 30.11 in 10.0 mi East 13.8 mph 18.4 mph 0.01 in   Overcast
8:52 PM 55.9 °F 52.0 °F 87% 30.11 in 10.0 mi East 13.8 mph - 0.01 in   Overcast
9:52 PM 55.0 °F 51.1 °F 86% 30.12 in 10.0 mi East 10.4 mph - N/A   Overcast
10:45 PM 53.6 °F 51.8 °F 94% 30.10 in 10.0 mi East 4.6 mph - N/A   Overcast
10:52 PM 54.0 °F 51.1 °F 90% 30.10 in 9.0 mi ENE 9.2 mph - N/A   Overcast
11:52 PM 53.1 °F 51.1 °F 93% 30.08 in 4.0 mi East 6.9 mph - 0.00 in   Light Drizzle